TimeCDT,TemperatureF,Dew PointF,Humidity,Sea Level PressureIn,VisibilityMPH,Wind Direction,Wind SpeedMPH,Gust SpeedMPH,PrecipitationIn,Events,Conditions,WindDirDegrees,DateUTC
12:53 AM,66.0,63.0,90,29.87,10.0,Calm,Calm,-,N/A,,Scattered Clouds,0,2011-10-12 05:53:00
1:53 AM,62.1,61.0,96,29.86,5.0,Calm,Calm,-,N/A,,Clear,0,2011-10-12 06:53:00
2:53 AM,61.0,60.1,97,29.85,10.0,Calm,Calm,-,N/A,,Clear,0,2011-10-12 07:53:00
3:53 AM,60.1,57.9,93,29.85,7.0,Calm,Calm,-,N/A,,Clear,0,2011-10-12 08:53:00
4:25 AM,59.0,57.2,94,29.86,9.0,Calm,Calm,-,N/A,,Scattered Clouds,0,2011-10-12 09:25:00
4:34 AM,60.8,57.2,88,29.86,10.0,Calm,Calm,-,N/A,,Mostly Cloudy,0,2011-10-12 09:34:00
4:53 AM,59.0,57.9,96,29.85,7.0,Calm,Calm,-,N/A,,Overcast,0,2011-10-12 09:53:00
5:38 AM,59.0,57.2,94,29.85,1.8,Calm,Calm,-,N/A,,Overcast,0,2011-10-12 10:38:00
5:48 AM,57.2,57.2,100,29.86,0.5,Calm,Calm,-,N/A,Fog,Fog,0,2011-10-12 10:48:00
5:53 AM,57.9,57.9,100,29.85,0.5,Calm,Calm,-,N/A,Fog,Fog,0,2011-10-12 10:53:00
6:19 AM,57.2,57.2,100,29.86,2.5,Calm,Calm,-,N/A,,Overcast,0,2011-10-12 11:19:00
6:25 AM,57.2,57.2,100,29.86,0.8,Calm,Calm,-,N/A,,Overcast,0,2011-10-12 11:25:00
6:37 AM,57.2,57.2,100,29.86,0.2,Calm,Calm,-,N/A,Fog,Fog,0,2011-10-12 11:37:00
6:53 AM,57.9,57.9,100,29.86,0.2,Calm,Calm,-,N/A,Fog,Fog,0,2011-10-12 11:53:00
7:53 AM,59.0,59.0,100,29.87,0.2,Calm,Calm,-,N/A,Fog,Fog,0,2011-10-12 12:53:00
8:53 AM,63.0,63.0,100,29.87,0.2,Calm,Calm,-,N/A,Fog,Fog,0,2011-10-12 13:53:00
9:11 AM,64.4,64.4,100,29.89,3.0,Calm,Calm,-,N/A,,Overcast,0,2011-10-12 14:11:00
9:38 AM,66.2,64.4,94,29.88,9.0,SSE,4.6,-,N/A,,Scattered Clouds,150,2011-10-12 14:38:00
9:53 AM,69.1,64.0,84,29.88,10.0,SSW,4.6,-,N/A,,Clear,200,2011-10-12 14:53:00
10:53 AM,73.0,64.9,76,29.87,10.0,SW,3.5,-,N/A,,Partly Cloudy,230,2011-10-12 15:53:00
11:27 AM,73.4,64.4,73,29.87,10.0,Variable,3.5,-,N/A,,Mostly Cloudy,0,2011-10-12 16:27:00
11:34 AM,73.4,64.4,73,29.87,10.0,Variable,3.5,-,N/A,,Scattered Clouds,0,2011-10-12 16:34:00
11:53 AM,73.9,64.0,71,29.85,10.0,Variable,4.6,-,N/A,,Partly Cloudy,0,2011-10-12 16:53:00
1:53 PM,80.1,64.0,58,29.80,10.0,West,4.6,-,N/A,,Mostly Cloudy,280,2011-10-12 18:53:00
2:53 PM,81.0,64.0,56,29.78,10.0,Variable,6.9,-,N/A,,Scattered Clouds,0,2011-10-12 19:53:00
3:53 PM,80.1,63.0,56,29.76,10.0,SSW,3.5,-,N/A,,Mostly Cloudy,200,2011-10-12 20:53:00
4:53 PM,81.0,64.0,56,29.75,10.0,SW,6.9,-,N/A,,Scattered Clouds,220,2011-10-12 21:53:00
5:53 PM,77.0,66.0,69,29.75,10.0,Calm,Calm,-,N/A,,Partly Cloudy,0,2011-10-12 22:53:00
6:35 PM,66.2,64.4,94,29.78,2.5,South,6.9,18.4,0.12,Rain,Light Rain,190,2011-10-12 23:35:00
6:43 PM,66.2,64.4,94,29.78,7.0,SSW,4.6,-,0.12,Rain,Light Rain,210,2011-10-12 23:43:00
6:53 PM,64.9,64.9,100,29.78,5.0,West,3.5,-,0.14,Rain,Rain,260,2011-10-12 23:53:00
7:53 PM,66.9,66.0,97,29.80,8.0,Calm,Calm,-,0.03,Rain,Light Rain,0,2011-10-13 00:53:00
9:12 PM,66.2,64.4,94,29.83,6.0,SSW,6.9,17.3,N/A,,Mostly Cloudy,210,2011-10-13 02:12:00
9:53 PM,66.0,64.9,96,29.82,6.0,Calm,Calm,-,N/A,,Clear,0,2011-10-13 02:53:00
10:06 PM,64.4,64.4,100,29.83,1.5,Calm,Calm,-,N/A,,Mostly Cloudy,0,2011-10-13 03:06:00
10:09 PM,64.4,64.4,100,29.83,0.8,Calm,Calm,-,N/A,,Mostly Cloudy,0,2011-10-13 03:09:00
10:39 PM,64.4,64.4,100,29.84,0.5,Calm,Calm,-,N/A,Fog,Fog,0,2011-10-13 03:39:00
10:44 PM,64.4,64.4,100,29.84,1.2,South,4.6,-,N/A,,Partly Cloudy,190,2011-10-13 03:44:00
10:48 PM,64.4,64.4,100,29.84,3.0,South,4.6,-,N/A,,Partly Cloudy,190,2011-10-13 03:48:00
10:53 PM,64.0,64.0,100,29.82,5.0,Calm,Calm,-,N/A,,Scattered Clouds,0,2011-10-13 03:53:00
11:53 PM,63.0,63.0,100,29.81,3.0,Calm,Calm,-,0.01,,Clear,0,2011-10-13 04:53:00
11:55 PM,62.6,62.6,100,29.82,1.2,Calm,Calm,-,N/A,,Clear,0,2011-10-13 04:55:00